| time (UTC) | temp C | wind direction | speed KPH | gust KPH | rain 1hr cm | rain 24hr cm | rain mn cm | humidity % | barometer mb |
| 20260507051004 | 4 | 267 | 4.8 | 17.7 | 0.00 | 0.23 | 0.00 | 64 | 1011.6 |
| 20260507050003 | 4 | 274 | 6.4 | 16.1 | 0.00 | 0.23 | 0.00 | 64 | 1011.6 |
| 20260507045003 | 4 | 272 | 4.8 | 16.1 | 0.00 | 0.23 | 0.00 | 64 | 1011.7 |
| 20260507044003 | 3 | 278 | 6.4 | 17.7 | 0.00 | 0.23 | 0.00 | 64 | 1011.6 |
| 20260507043024 | 3 | 271 | 4.8 | 11.3 | 0.00 | 0.23 | 0.00 | 64 | 1011.4 |
| 20260507042003 | 3 | 269 | 4.8 | 12.9 | 0.00 | 0.23 | 0.00 | 64 | 1011.5 |
| 20260507041003 | 4 | 274 | 4.8 | 12.9 | 0.00 | 0.23 | 0.00 | 64 | 1011.4 |
| 20260507040003 | 4 | 272 | 8.0 | 20.9 | 0.00 | 0.23 | 0.00 | 63 | 1011.4 |
| 20260507035003 | 4 | 276 | 8.0 | 17.7 | 0.00 | 0.23 | 0.23 | 62 | 1011.3 |
| 20260507034003 | 4 | 275 | 9.7 | 17.7 | 0.00 | 0.23 | 0.23 | 62 | 1011.2 |
| 20260507033024 | 4 | 277 | 8.0 | 17.7 | 0.00 | 0.23 | 0.23 | 62 | 1011.1 |
| 20260507032025 | 4 | 281 | 8.0 | 20.9 | 0.00 | 0.23 | 0.23 | 62 | 1011.2 |
| 20260507031003 | 5 | 277 | 6.4 | 16.1 | 0.00 | 0.23 | 0.23 | 62 | 1011.3 |
| 20260507030003 | 5 | 271 | 6.4 | 14.5 | 0.00 | 0.23 | 0.23 | 62 | 1011.5 |
| 20260507025003 | 5 | 275 | 6.4 | 17.7 | 0.00 | 0.23 | 0.23 | 61 | 1011.3 |
| 20260507024003 | 5 | 273 | 4.8 | 16.1 | 0.00 | 0.23 | 0.23 | 61 | 1011.4 |
| 20260507023003 | 5 | 275 | 4.8 | 14.5 | 0.00 | 0.23 | 0.23 | 62 | 1011.3 |
| 20260507022003 | 5 | 276 | 6.4 | 16.1 | 0.00 | 0.23 | 0.23 | 62 | 1011.3 |
| 20260507021003 | 5 | 276 | 6.4 | 16.1 | 0.00 | 0.23 | 0.23 | 61 | 1011.2 |
| 20260507020003 | 6 | 262 | 4.8 | 12.9 | 0.00 | 0.23 | 0.23 | 61 | 1011.3 |
| 20260507015024 | 6 | 270 | 4.8 | 14.5 | 0.00 | 0.23 | 0.23 | 61 | 1011.3 |
| 20260507014003 | 6 | 279 | 6.4 | 12.9 | 0.00 | 0.23 | 0.23 | 61 | 1011.2 |
| 20260507013024 | 6 | 281 | 6.4 | 19.3 | 0.00 | 0.23 | 0.23 | 59 | 1011.1 |
| 20260507012003 | 6 | 278 | 8.0 | 24.1 | 0.00 | 0.23 | 0.23 | 57 | 1011.0 |
| 20260507011024 | 7 | 280 | 6.4 | 25.7 | 0.00 | 0.23 | 0.23 | 56 | 1010.9 |
| 20260507010003 | 7 | 277 | 9.7 | 19.3 | 0.00 | 0.23 | 0.23 | 55 | 1010.8 |
| 20260507005003 | 7 | 280 | 9.7 | 27.4 | 0.00 | 0.23 | 0.23 | 55 | 1010.6 |
| 20260507004003 | 7 | 275 | 3.2 | 12.9 | 0.00 | 0.23 | 0.23 | 64 | 1010.6 |
| 20260507003003 | 7 | 271 | 1.6 | 6.4 | 0.00 | 0.23 | 0.23 | 71 | 1010.6 |
| 20260507002003 | 8 | 262 | 1.6 | 6.4 | 0.00 | 0.23 | 0.23 | 70 | 1010.5 |
| 20260507001003 | 8 | 279 | 0.0 | 4.8 | 0.00 | 0.23 | 0.23 | 69 | 1010.3 |
| 20260507000003 | 8 | 264 | 1.6 | 4.8 | 0.00 | 0.23 | 0.23 | 70 | 1010.1 |
| 20260506235003 | 8 | 280 | 3.2 | 9.7 | 0.00 | 0.23 | 0.23 | 72 | 1010.2 |
| 20260506234003 | 8 | 273 | 3.2 | 11.3 | 0.00 | 0.23 | 0.23 | 74 | 1010.2 |
| 20260506233003 | 8 | 276 | 3.2 | 9.7 | 0.00 | 0.23 | 0.23 | 76 | 1010.0 |
| 20260506232003 | 8 | 276 | 3.2 | 12.9 | 0.00 | 0.23 | 0.23 | 77 | 1010.0 |
| 20260506231003 | 8 | 261 | 1.6 | 11.3 | 0.00 | 0.23 | 0.23 | 78 | 1010.0 |
| 20260506230004 | 8 | 280 | 4.8 | 12.9 | 0.00 | 0.23 | 0.23 | 80 | 1009.7 |
| 20260506225003 | 8 | 278 | 6.4 | 14.5 | 0.00 | 0.23 | 0.23 | 79 | 1009.6 |
| 20260506224004 | 8 | 276 | 4.8 | 14.5 | 0.00 | 0.23 | 0.23 | 82 | 1009.6 |
| 20260506223003 | 8 | 272 | 4.8 | 17.7 | 0.00 | 0.23 | 0.23 | 81 | 1009.6 |
| 20260506222003 | 8 | 285 | 6.4 | 16.1 | 0.00 | 0.23 | 0.23 | 83 | 1009.5 |
| 20260506221003 | 8 | 278 | 6.4 | 20.9 | 0.00 | 0.23 | 0.23 | 83 | 1009.4 |
| 20260506220003 | 8 | 277 | 6.4 | 16.1 | 0.00 | 0.23 | 0.23 | 85 | 1009.4 |
| 20260506215004 | 7 | 273 | 4.8 | 12.9 | 0.00 | 0.23 | 0.23 | 86 | 1009.4 |
| 20260506214003 | 7 | 277 | 6.4 | 14.5 | 0.00 | 0.23 | 0.23 | 86 | 1009.4 |
| 20260506213003 | 8 | 271 | 6.4 | 19.3 | 0.00 | 0.23 | 0.23 | 85 | 1009.4 |
| 20260506212003 | 9 | 274 | 3.2 | 14.5 | 0.00 | 0.23 | 0.23 | 83 | 1009.2 |
| 20260506211003 | 8 | 275 | 4.8 | 16.1 | 0.00 | 0.23 | 0.23 | 83 | 1009.2 |
| 20260506210003 | 8 | 276 | 6.4 | 22.5 | 0.00 | 0.25 | 0.23 | 82 | 1009.2 |
| 20260506205003 | 9 | 258 | 4.8 | 17.7 | 0.00 | 0.28 | 0.23 | 80 | 1009.3 |
| 20260506204003 | 10 | 260 | 4.8 | 17.7 | 0.00 | 0.28 | 0.23 | 76 | 1009.2 |
| 20260506203003 | 10 | 187 | 1.6 | 9.7 | 0.00 | 0.28 | 0.23 | 76 | 1009.0 |
| 20260506202003 | 10 | 184 | 1.6 | 6.4 | 0.00 | 0.28 | 0.23 | 75 | 1008.9 |
| 20260506201003 | 10 | 160 | 3.2 | 8.0 | 0.00 | 0.28 | 0.23 | 73 | 1009.0 |
| 20260506200024 | 10 | 183 | 1.6 | 8.0 | 0.00 | 0.28 | 0.23 | 71 | 1009.1 |
| 20260506195024 | 11 | 161 | 3.2 | 9.7 | 0.00 | 0.28 | 0.23 | 70 | 1009.2 |
| 20260506194003 | 11 | 166 | 1.6 | 6.4 | 0.00 | 0.28 | 0.23 | 68 | 1009.0 |
| 20260506193003 | 11 | 174 | 1.6 | 11.3 | 0.00 | 0.28 | 0.23 | 67 | 1008.9 |
| 20260506192003 | 11 | 216 | 1.6 | 9.7 | 0.00 | 0.28 | 0.23 | 67 | 1008.9 |
| 20260506191003 | 11 | 155 | 4.8 | 11.3 | 0.00 | 0.28 | 0.23 | 68 | 1009.0 |
| 20260506190004 | 11 | 163 | 1.6 | 9.7 | 0.00 | 0.28 | 0.23 | 66 | 1009.0 |
| 20260506185003 | 11 | 172 | 1.6 | 9.7 | 0.00 | 0.28 | 0.23 | 67 | 1008.9 |
| 20260506184003 | 11 | 155 | 1.6 | 6.4 | 0.00 | 0.28 | 0.23 | 66 | 1009.0 |
| 20260506183003 | 11 | 123 | 1.6 | 6.4 | 0.00 | 0.28 | 0.23 | 66 | 1009.0 |
| 20260506182024 | 11 | 250 | 1.6 | 4.8 | 0.00 | 0.28 | 0.23 | 65 | 1009.1 |
| 20260506181003 | 11 | 138 | 1.6 | 6.4 | 0.00 | 0.28 | 0.23 | 64 | 1009.1 |
| 20260506180004 | 11 | 271 | 1.6 | 11.3 | 0.00 | 0.28 | 0.23 | 62 | 1009.1 |
| 20260506175003 | 11 | 278 | 3.2 | 8.0 | 0.00 | 0.28 | 0.23 | 65 | 1009.0 |
| 20260506174004 | 12 | 167 | 1.6 | 6.4 | 0.00 | 0.28 | 0.23 | 63 | 1009.1 |
| 20260506173025 | 10 | 26 | 1.6 | 4.8 | 0.00 | 0.28 | 0.23 | 68 | 1009.1 |
| 20260506172004 | 11 | 158 | 1.6 | 4.8 | 0.00 | 0.28 | 0.23 | 67 | 1009.3 |
| 20260506171003 | 10 | 337 | 3.2 | 9.7 | 0.00 | 0.28 | 0.23 | 70 | 1009.4 |
| 20260506170025 | 10 | 340 | 0.0 | 6.4 | 0.00 | 0.28 | 0.23 | 68 | 1009.4 |
| 20260506165003 | 9 | 278 | 3.2 | 9.7 | 0.00 | 0.28 | 0.23 | 71 | 1009.6 |
| 20260506164003 | 10 | 265 | 0.0 | 6.4 | 0.00 | 0.28 | 0.23 | 71 | 1009.6 |
| 20260506163003 | 8 | 347 | 0.0 | 4.8 | 0.00 | 0.28 | 0.23 | 73 | 1009.6 |
| 20260506162003 | 9 | 151 | 1.6 | 4.8 | 0.00 | 0.28 | 0.23 | 72 | 1009.5 |
| 20260506161004 | 9 | 147 | 0.0 | 4.8 | 0.00 | 0.28 | 0.23 | 74 | 1009.4 |
| 20260506160003 | 8 | 117 | 0.0 | 3.2 | 0.00 | 0.28 | 0.23 | 76 | 1009.2 |
| 20260506155003 | 8 | 163 | 0.0 | 4.8 | 0.00 | 0.28 | 0.23 | 80 | 1009.3 |
| 20260506154003 | 8 | 132 | 1.6 | 3.2 | 0.00 | 0.28 | 0.23 | 80 | 1009.4 |
| 20260506153003 | 8 | 132 | 0.0 | 3.2 | 0.00 | 0.28 | 0.23 | 82 | 1009.4 |
| 20260506152002 | 8 | 135 | 0.0 | 1.6 | 0.00 | 0.28 | 0.23 | 82 | 1009.4 |
| 20260506151024 | 8 | 112 | 0.0 | 1.6 | 0.00 | 0.28 | 0.23 | 82 | 1009.3 |
| 20260506150003 | 7 | 92 | 0.0 | 3.2 | 0.00 | 0.28 | 0.23 | 83 | 1009.2 |
| 20260506145002 | 7 | 124 | 0.0 | 3.2 | 0.00 | 0.28 | 0.23 | 85 | 1009.2 |
| 20260506144023 | 7 | 117 | 0.0 | 3.2 | 0.03 | 0.28 | 0.23 | 84 | 1009.4 |
| 20260506143002 | 7 | 125 | 0.0 | 4.8 | 0.03 | 0.28 | 0.23 | 85 | 1009.5 |
| 20260506142002 | 7 | 71 | 0.0 | 1.6 | 0.03 | 0.28 | 0.23 | 87 | 1009.5 |
| 20260506141024 | 6 | 192 | 0.0 | 1.6 | 0.03 | 0.28 | 0.23 | 91 | 1009.6 |
| 20260506140002 | 6 | 273 | 0.0 | 1.6 | 0.03 | 0.28 | 0.23 | 93 | 1009.7 |
| 20260506135002 | 6 | 274 | 0.0 | 1.6 | 0.03 | 0.28 | 0.23 | 93 | 1009.7 |
| 20260506134002 | 6 | 89 | 0.0 | 1.6 | 0.00 | 0.25 | 0.23 | 93 | 1009.9 |
| 20260506133002 | 6 | 0 | 0.0 | 0.0 | 0.00 | 0.25 | 0.23 | 93 | 1009.5 |
| 20260506132002 | 6 | 0 | 0.0 | 0.0 | 0.03 | 0.25 | 0.23 | 93 | 1009.3 |
| 20260506130003 | 6 | 0 | 0.0 | 0.0 | 0.05 | 0.25 | 0.23 | 93 | 1009.4 |
| 20260506125003 | 6 | 0 | 0.0 | 0.0 | 0.05 | 0.25 | 0.23 | 94 | 1009.5 |
| 20260506124003 | 6 | 76 | 0.0 | 1.6 | 0.05 | 0.25 | 0.23 | 94 | 1009.2 |
| 20260506123003 | 5 | 71 | 0.0 | 3.2 | 0.05 | 0.25 | 0.23 | 94 | 1009.1 |
| 20260506122003 | 5 | 128 | 0.0 | 1.6 | 0.05 | 0.23 | 0.20 | 94 | 1009.2 |
| 20260506121003 | 5 | 128 | 0.0 | 1.6 | 0.05 | 0.23 | 0.20 | 95 | 1009.2 |
| 20260506120003 | 5 | 147 | 0.0 | 1.6 | 0.03 | 0.23 | 0.18 | 94 | 1009.4 |
| 20260506115003 | 5 | 138 | 0.0 | 1.6 | 0.03 | 0.23 | 0.18 | 95 | 1009.3 |
| 20260506114024 | 5 | 131 | 0.0 | 1.6 | 0.03 | 0.23 | 0.18 | 95 | 1009.1 |
| 20260506113003 | 5 | 139 | 0.0 | 1.6 | 0.00 | 0.20 | 0.15 | 95 | 1009.3 |
| 20260506112003 | 5 | 139 | 0.0 | 1.6 | 0.00 | 0.20 | 0.15 | 95 | 1009.2 |
| 20260506111003 | 5 | 0 | 0.0 | 0.0 | 0.00 | 0.20 | 0.15 | 95 | 1009.0 |
| 20260506110024 | 5 | 139 | 0.0 | 1.6 | 0.00 | 0.20 | 0.15 | 95 | 1008.9 |
| 20260506105003 | 5 | 143 | 0.0 | 1.6 | 0.00 | 0.20 | 0.15 | 95 | 1008.8 |
| 20260506104003 | 5 | 143 | 0.0 | 1.6 | 0.00 | 0.20 | 0.15 | 95 | 1008.8 |
| 20260506103003 | 5 | 0 | 0.0 | 0.0 | 0.00 | 0.20 | 0.15 | 95 | 1008.8 |
| 20260506102003 | 5 | 0 | 0.0 | 0.0 | 0.00 | 0.20 | 0.15 | 94 | 1008.8 |
| 20260506101003 | 5 | 166 | 0.0 | 1.6 | 0.00 | 0.20 | 0.15 | 94 | 1008.9 |
| 20260506100003 | 5 | 161 | 0.0 | 1.6 | 0.00 | 0.20 | 0.15 | 94 | 1008.7 |
| 20260506095024 | 5 | 153 | 0.0 | 1.6 | 0.00 | 0.20 | 0.15 | 94 | 1008.7 |
| 20260506094003 | 5 | 157 | 0.0 | 1.6 | 0.03 | 0.20 | 0.15 | 94 | 1008.7 |
| 20260506093003 | 5 | 167 | 0.0 | 4.8 | 0.03 | 0.20 | 0.15 | 94 | 1008.9 |
| 20260506092003 | 5 | 175 | 0.0 | 6.4 | 0.03 | 0.20 | 0.15 | 94 | 1009.0 |
| 20260506091003 | 6 | 142 | 0.0 | 3.2 | 0.05 | 0.20 | 0.15 | 94 | 1009.1 |
| 20260506090003 | 6 | 153 | 1.6 | 3.2 | 0.05 | 0.20 | 0.15 | 94 | 1009.4 |
| 20260506085003 | 6 | 166 | 0.0 | 4.8 | 0.05 | 0.20 | 0.15 | 94 | 1009.4 |
| 20260506084003 | 6 | 166 | 0.0 | 4.8 | 0.05 | 0.18 | 0.15 | 94 | 1009.2 |
| 20260506083003 | 6 | 116 | 0.0 | 1.6 | 0.05 | 0.18 | 0.15 | 94 | 1008.9 |
| 20260506082024 | 6 | 0 | 0.0 | 0.0 | 0.05 | 0.18 | 0.15 | 93 | 1008.8 |
| 20260506081003 | 6 | 0 | 0.0 | 0.0 | 0.05 | 0.15 | 0.13 | 93 | 1008.7 |
| 20260506073003 | 6 | 0 | 0.0 | 0.0 | 0.08 | 0.13 | 0.08 | 92 | 1009.0 |
| 20260506072003 | 6 | 142 | 0.0 | 3.2 | 0.08 | 0.13 | 0.08 | 91 | 1008.9 |
| 20260506071003 | 6 | 171 | 0.0 | 1.6 | 0.05 | 0.10 | 0.05 | 91 | 1009.0 |
| 20260506062003 | 7 | 181 | 1.6 | 4.8 | 0.00 | 0.05 | 0.00 | 87 | 1009.7 |
| 20260506061003 | 7 | 157 | 0.0 | 4.8 | 0.00 | 0.05 | 0.00 | 87 | 1009.6 |